PDT,Max TemperatureF,Mean TemperatureF,Min TemperatureF,Max Dew PointF,MeanDew PointF,Min DewpointF,Max Humidity, Mean Humidity, Min Humidity, Max Sea Level PressureIn, Mean Sea Level PressureIn, Min Sea Level PressureIn, Max VisibilityMiles, Mean VisibilityMiles, Min VisibilityMiles, Max Wind SpeedMPH, Mean Wind SpeedMPH, Max Gust SpeedMPH,PrecipitationIn, CloudCover, Events, WindDirDegrees
2013-9-1,94,85,75,63,59,55,64,46,28,29.91,29.88,29.83,10,10,10,26,13,33,0.00,0,,243
2013-9-2,97,85,72,60,54,47,57,39,21,29.91,29.86,29.78,10,10,10,28,10,33,0.00,0,,242
2013-9-3,97,86,74,54,50,47,46,34,21,29.94,29.87,29.81,10,10,10,26,9,33,0.00,1,Thunderstorm,267
2013-9-4,100,85,69,56,51,47,53,35,17,29.96,29.91,29.83,10,10,10,21,6,29,0.00,0,,179
2013-9-5,100,85,70,54,48,44,47,32,16,29.92,29.88,29.83,10,10,10,23,9,29,0.00,0,,230
2013-9-6,100,84,67,49,44,39,44,30,15,29.92,29.86,29.79,10,10,10,24,8,30,0.00,0,,257
2013-9-7,99,83,67,43,38,34,42,27,12,29.90,29.85,29.78,10,10,10,23,8,36,0.00,0,,238
2013-9-8,98,84,69,48,37,31,35,23,10,29.86,29.80,29.71,10,10,10,21,8,23,0.00,0,,234
2013-9-9,96,84,71,50,44,38,47,32,16,29.82,29.75,29.67,10,10,10,23,11,26,0.00,0,,241
2013-9-10,91,81,71,40,38,35,31,23,15,29.85,29.79,29.72,10,10,10,26,13,31,0.00,0,,226
2013-9-11,92,79,66,42,37,29,42,28,14,29.91,29.88,29.85,10,10,10,23,12,26,0.00,0,,229
2013-9-12,94,79,64,43,33,20,42,25,7,29.91,29.86,29.81,10,10,10,22,10,26,0.00,0,,230
2013-9-13,96,79,62,45,40,35,39,27,15,29.84,29.77,29.68,10,10,10,17,6,21,0.00,0,,256
2013-9-14,99,82,64,45,42,37,44,28,12,29.76,29.71,29.64,10,10,10,22,6,26,0.00,0,,234
2013-9-15,100,83,65,47,39,34,42,27,11,29.79,29.74,29.70,10,10,10,25,6,31,0.00,0,,255
2013-9-16,98,81,64,40,34,29,32,22,11,29.84,29.79,29.73,10,10,10,25,8,30,0.00,0,,235
2013-9-17,91,76,61,45,33,18,40,24,7,29.79,29.74,29.67,10,10,10,28,14,33,0.00,0,,269
2013-9-18,88,72,56,48,36,21,56,33,9,29.80,29.76,29.71,10,10,10,17,5,21,0.00,0,,327
2013-9-19,94,75,55,47,34,22,60,34,7,29.86,29.79,29.73,10,10,10,15,4,20,0.00,0,,182
2013-9-20,91,76,60,47,39,30,45,30,15,29.83,29.78,29.73,10,10,10,26,9,31,0.00,0,,236
2013-9-21,78,68,58,50,46,41,72,52,31,29.82,29.79,29.71,10,10,8,33,18,40,0.00,0,,234
2013-9-22,73,63,53,46,39,33,72,49,25,29.91,29.84,29.79,10,10,10,29,15,35,0.00,0,,286
2013-9-23,87,68,49,40,34,28,66,39,12,29.99,29.93,29.88,10,10,10,15,4,18,T,0,,167
2013-9-24,89,72,54,35,30,25,38,25,11,29.93,29.87,29.80,10,10,10,28,12,33,0.00,0,,226
2013-9-25,78,67,56,48,39,32,57,39,21,29.78,29.71,29.65,10,10,5,35,20,40,0.00,1,,284
2013-9-26,70,61,51,38,31,22,59,38,16,29.92,29.80,29.69,10,9,2,31,18,38,0.00,1,,286
2013-9-27,74,59,44,30,23,15,49,31,12,30.08,30.02,29.92,10,10,10,18,7,22,0.00,0,,131
2013-9-28,82,63,44,25,20,14,40,24,8,30.12,30.07,30.01,10,10,10,12,5,16,0.00,0,,19
2013-9-29,89,70,50,28,22,10,36,21,6,30.08,30.02,29.96,10,10,10,25,9,31,0.00,0,,233
2013-9-30,87,70,53,33,30,28,38,26,13,29.99,29.93,29.86,10,10,10,28,10,32,0.00,0,,257